Chicago, Illinois, United States (60601)
Lat: 41.85N, Lon: 87.65W
Wx Zone: ILZ014
Local Info
Past Weather Observations for Monday, April 25, 2016

NOTE: This archive is for the closest National Weather Service station to Chicago. Information may differ from the station used for current weather conditions.

Click here for Long-term Archive

Time Weather Temperature Dewpoint Humidity Pressure Winds Precip Visibility
23:53
Partly Cloudy
72°F / 22°C 54°F / 12°C 53% 29.68 in
(1005 mb)
NW 9.2 mph
(NW 15 kph)
- 10SM
22:53
Mostly Cloudy
73°F / 23°C 55°F / 13°C 53% 29.65 in
(1004 mb)
W 9.2 mph
(W 15 kph)
- 10SM
21:53
Mostly Cloudy
75°F / 24°C 57°F / 14°C 54% 29.65 in
(1004 mb)
W 15 mph
(W 24 kph)
0.01 in
(0.25 mm)
10SM
21:31
Mostly Cloudy
Light Rain
75°F / 24°C 61°F / 16°C 61% 29.65 in
(1004 mb)
W 12.7 mph
(W 20 kph)
0.01 in
(0.25 mm)
10SM
20:53
Mostly Cloudy
Thunder Storms
79°F / 26°C 57°F / 14°C 48% 29.62 in
(1003 mb)
SSW 13.8 mph
(SSW 22 kph)
- 10SM
20:33
Partly Cloudy
Thunder Storms
79°F / 26°C 57°F / 14°C 48% 29.62 in
(1003 mb)
SSW 15 mph
(SSW 24 kph)
- 10SM
19:53
Mostly Cloudy
79°F / 26°C 55°F / 13°C 45% 29.62 in
(1003 mb)
SW 11.5 mph
(SW 19 kph)
- 10SM
18:53
Mostly Cloudy
81°F / 27°C 55°F / 13°C 42% 29.59 in
(1002 mb)
SW 17.3 mph
(SW 28 kph)
- 10SM
17:53
Mostly Cloudy
81°F / 27°C 55°F / 13°C 42% 29.59 in
(1002 mb)
SW 13.8 mph
(SW 22 kph)
- 10SM
16:53
Mostly Cloudy
82°F / 28°C 55°F / 13°C 40% 29.59 in
(1002 mb)
SW 19.6 mph
(SW 32 kph)
- 10SM
15:53
Mostly Cloudy
82°F / 28°C 55°F / 13°C 40% 29.62 in
(1003 mb)
SSE 19.6 mph
(SSE 32 kph)
- 10SM
14:53
Mostly Cloudy
82°F / 28°C 55°F / 13°C 40% 29.62 in
(1003 mb)
SW 19.6 mph
(SW 32 kph)
- 10SM
13:53
Mostly Cloudy
81°F / 27°C 54°F / 12°C 39% 29.65 in
(1004 mb)
SSE 21.9 mph
(SSE 35 kph)
- 10SM
12:53
Mostly Cloudy
81°F / 27°C 54°F / 12°C 39% 29.68 in
(1005 mb)
SW 18.4 mph
(SW 30 kph)
- 10SM
11:53
Mostly Cloudy
79°F / 26°C 54°F / 12°C 42% 29.68 in
(1005 mb)
S 17.3 mph
(S 28 kph)
- 10SM
10:53
Partly Cloudy
79°F / 26°C 54°F / 12°C 42% 29.71 in
(1006 mb)
SW 19.6 mph
(SW 32 kph)
- 10SM
09:53
Partly Cloudy
75°F / 24°C 54°F / 12°C 47% 29.74 in
(1007 mb)
SW 11.5 mph
(SW 19 kph)
- 10SM
08:53
Mostly Cloudy
72°F / 22°C 54°F / 12°C 53% 29.74 in
(1007 mb)
SW 19.6 mph
(SW 32 kph)
- 10SM
07:53
Mostly Cloudy
68°F / 20°C 52°F / 11°C 56% 29.74 in
(1007 mb)
SSE 15 mph
(SSE 24 kph)
- 10SM
06:53
Overcast
66°F / 19°C 50°F / 10°C 56% 29.74 in
(1007 mb)
S 10.4 mph
(S 17 kph)
- 10SM
05:53
Mostly Cloudy
64°F / 18°C 48°F / 9°C 56% 29.77 in
(1008 mb)
S 11.5 mph
(S 19 kph)
- 10SM
04:53
Partly Cloudy
63°F / 17°C 48°F / 9°C 59% 29.77 in
(1008 mb)
S 9.2 mph
(S 15 kph)
- 10SM
03:53
Mostly Cloudy
64°F / 18°C 48°F / 9°C 56% 29.77 in
(1008 mb)
S 8.1 mph
(S 13 kph)
- 10SM
02:53
Overcast
64°F / 18°C 48°F / 9°C 56% 29.77 in
(1008 mb)
S 9.2 mph
(S 15 kph)
- 10SM
01:53
Overcast
64°F / 18°C 48°F / 9°C 56% 29.8 in
(1009 mb)
S 9.2 mph
(S 15 kph)
- 10SM
00:53
Overcast
66°F / 19°C 48°F / 9°C 52% 29.8 in
(1009 mb)
SSE 8.1 mph
(SSE 13 kph)
- 10SM
Time Weather Temperature Dewpoint Humidity Pressure Winds Precip Visibility


Weather for websites

WeatherForYou.com, LLC is not responsible for any damages or problems caused by this service. Current weather conditions are obtained from the closest station including government and personal stations which may have varying degrees of accuracy. Weather forecasts are derived from the NOAA NDFD. Like all things, this site belongs to Jesus Christ... He just trusts us to maintain it. If you have any questions or comments email webmaster@weatherforyou.com

Copyright © 2016, WeatherForYou.com LLC. All rights reserved.